Location: ??????
(41.3164°N, 22.6615°E)
Time: 12:06:58
(UTC+00:00)

CAS-4A - Pass Details

Date: 12 July 2022
Orbit: 521 x 537 km, 43.0° (Epoch: 13 August)

Event Time Altitude Azimuth Distance (km) Brightness Sun altitude
Exits shadow 01:27:51 21° 182° (S) 1,200 ? -15.1°
Drops below altitude 10° 01:29:52 10° 156° (SSE) 1,751 ? -14.8°
Sets 01:32:21 0° 143° (SE) 2,639 ? -14.5°
